Probability
0 0 1 1 1 0 0 0 1 4 6 7 8 11 11 10 10 12 12 10 8 9 8 8 10 12 11 10 12 14 12 12 12 11 11 11 13 12 9 8 9 9 8 8
0 0 0 0 0 0 1 1 3 6 8 8 9 11 11 11 11 12 11 11 10 9 8 9 10 11 10 8 9 12 12 12 13 14 14 13 14 13 10 8 8 10 10 10
0 0 0 0 0 0 1 3 5 7 9 9 9 9 9 11 12 12 12 11 11 10 8 8 10 11 9 7 6 9 10 11 12 15 15 15 14 13 10 8 9 10 11 11
0 0 0 0 0 1 2 3 4 6 8 9 9 7 6 8 10 11 12 12 11 10 8 9 12 14 13 9 7 8 10 11 13 14 15 14 14 13 12 11 10 11 12 12
0 0 0 0 0 1 2 2 3 5 6 8 8 7 6 6 9 11 13 12 10 9 9 11 15 18 17 14 11 11 13 15 16 16 16 15 13 13 13 13 12 12 13 14
0 0 0 0 0 2 2 2 3 5 6 8 9 9 9 10 12 14 17 16 13 11 12 14 18 19 19 16 16 16 16 17 17 16 16 14 13 12 12 12 11 11 12 13
0 0 0 1 1 2 3 2 3 4 7 9 9 11 13 16 18 21 24 23 18 16 16 17 18 18 17 15 16 16 16 15 14 14 13 12 12 11 10 9 9 8 8 9
0 0 0 1 2 2 2 2 3 4 6 9 10 13 17 19 21 25 27 25 22 19 19 19 19 17 14 13 14 14 12 11 11 10 10 9 9 9 8 8 7 7 6 5
1 1 1 1 2 1 1 1 2 5 8 10 11 13 16 18 21 23 24 23 21 20 19 19 19 17 14 12 12 11 10 9 8 8 7 8 7 7 7 7 6 6 5 4
2 2 2 1 0 0 0 1 3 6 10 12 12 14 15 17 20 22 23 22 21 20 19 19 18 15 13 11 10 9 8 8 7 6 6 6 6 6 6 6 6 6 6 5
3 3 3 1 1 1 1 2 5 8 10 12 13 14 16 17 19 21 22 22 21 20 19 17 14 13 10 8 8 7 5 4 4 6 6 6 6 6 6 6 5 5 5 5
3 3 3 3 3 2 3 4 7 9 10 11 13 14 16 17 19 19 20 20 19 19 18 14 12 10 7 5 4 4 2 1 2 4 5 5 5 5 4 4 3 2 3 3
2 3 3 3 4 4 4 6 9 10 10 10 11 12 13 14 15 14 14 14 15 16 15 12 11 8 5 2 1 1 1 0 1 2 2 2 2 2 2 2 1 0 1 1
3 3 3 3 3 3 3 5 7 8 9 9 9 8 9 10 11 10 9 9 10 12 12 11 9 6 3 1 0 0 0 0 0 0 0 0 0 0 1 1 1 0 0 0
3 3 3 3 3 2 1 2 3 5 6 7 6 6 6 7 8 9 8 7 8 9 10 9 7 4 2 0 0 0 0 0 0 0 0 0 0 0 0 0 0 0 0 0
3 3 3 3 3 2 1 1 2 3 4 5 4 4 4 5 7 9 9 7 7 7 8 7 5 3 2 1 0 0 0 0 0 0 0 0 0 0 0 0 0 0 0 0
2 1 1 2 3 3 3 2 3 4 4 4 3 2 2 3 6 8 9 7 6 6 6 5 4 3 3 2 1 0 0 0 0 0 0 0 0 0 0 0 0 0 0 0
2 1 1 1 2 3 3 2 2 3 4 4 2 1 1 3 6 8 8 6 5 5 4 3 3 3 3 2 1 0 0 0 0 0 0 0 0 0 0 0 0 0 0 0
3 3 3 3 3 3 2 1 1 3 3 2 1 1 1 3 6 7 6 4 3 3 3 3 3 2 2 2 1 0 0 0 0 0 0 0 0 0 0 0 0 0 0 0
2 2 3 4 5 5 4 2 1 1 1 0 0 1 3 4 5 4 2 1 1 2 2 2 1 1 1 1 0 0 0 0 0 0 0 0 0 0 0 0 0 0 0 0
1 1 2 3 5 6 5 2 0 0 0 0 0 2 3 4 3 1 0 0 0 1 1 1 0 0 0 0 0 0 0 0 0 0 0 0 0 0 0 0 0 0 0 0
1 1 2 2 3 5 3 1 0 0 0 0 1 2 3 2 1 0 0 0 0 0 0 0 0 0 0 0 0 0 0 0 0 0 0 0 0 0 0 0 0 0 0 0
0 1 1 1 2 3 1 0 0 0 0 1 2 3 3 1 0 0 0 0 0 0 0 0 0 0 0 0 0 0 0 0 0 0 0 0 0 0 0 0 0 0 0 0
0 0 0 1 2 2 1 0 0 0 1 1 2 3 2 1 0 0 0 0 0 0 0 0 0 0 0 0 0 0 0 0 0 0 0 0 0 0 0 0 0 0 0 0
0 0 0 1 2 3 1 1 1 2 2 2 2 1 1 0 0 0 0 0 0 0 0 0 0 0 0 0 0 0 0 0 0 0 0 0 0 0 0 0 0 0 0 0
0 0 0 1 2 2 2 2 3 3 2 1 1 0 0 0 0 0 0 0 0 0 0 0 0 0 0 0 0 0 0 0 0 0 0 0 0 0 0 0 0 0 0 0
0 0 0 0 1 2 3 3 3 2 1 0 0 0 0 0 0 0 0 0 0 0 0 0 0 0 0 0 0 0 0 0 0 0 0 0 0 0 0 0 0 0 0 0
Wind_Speed
4 4 3 1 2 2 2 6 7 6 5 6 6 7 6 5 6 6 7 7 6 5 3 3 3 3 4 3 3 3 4 4 4 3 3 2 2 2 1 1 2 2 2 2
3 2 1 1 2 2 2 3 4 5 2 3 5 5 6 6 7 7 7 8 7 6 5 4 4 3 3 3 3 3 4 3 3 3 2 2 2 1 1 1 1 1 1 2
3 4 4 3 3 2 3 2 5 5 6 5 7 8 9 8 7 7 8 8 8 7 6 5 5 5 5 4 3 3 3 3 2 3 3 3 2 1 2 2 1 1 2 2
0 3 1 7 3 4 5 1 2 4 5 7 8 6 5 6 7 6 6 6 6 6 5 4 4 4 4 3 3 3 3 2 2 2 2 2 1 2 2 2 2 2 2 2
2 1 3 5 3 1 4 2 1 5 5 5 5 6 2 1 3 5 5 5 5 5 5 4 4 4 4 3 3 3 2 2 2 2 2 2 2 2 2 1 2 2 2 2
3 2 3 4 6 1 7 2 3 4 6 6 6 4 2 1 3 4 3 4 4 4 4 5 4 5 5 3 2 2 2 2 2 2 2 2 2 2 1 1 2 2 1 1
3 3 4 5 5 4 4 4 3 2 4 4 4 5 4 3 3 4 5 5 5 5 4 4 4 5 4 2 2 2 1 1 1 1 2 2 1 1 1 1 0 0 1 1
3 2 4 5 3 4 4 3 1 2 3 4 4 5 5 4 4 6 5 5 5 5 4 3 4 5 4 2 1 1 1 1 0 0 1 1 1 0 0 1 0 0 1 2
4 5 5 1 3 4 4 3 2 3 4 7 6 5 5 4 4 4 4 4 4 5 4 2 2 4 3 1 1 1 1 1 0 0 0 1 1 1 0 0 1 1 1 2
2 1 1 2 3 3 3 3 2 4 6 7 7 5 4 3 3 4 3 3 3 5 4 2 2 2 3 2 2 2 1 0 0 0 0 0 0 1 1 1 1 1 1 2
1 1 3 4 2 3 3 4 4 3 4 6 7 4 4 4 3 3 3 2 3 4 3 2 2 2 2 2 3 2 1 0 0 0 0 0 1 1 2 3 3 3 3 3
4 4 3 3 1 2 4 4 4 4 3 3 5 5 4 3 2 3 3 3 3 3 3 2 2 2 1 2 3 3 1 1 1 1 0 0 1 2 3 2 2 4 5 4
4 3 2 1 2 3 3 3 3 4 3 2 3 5 5 3 2 3 3 3 3 3 3 2 2 1 1 1 2 2 2 1 1 1 1 0 0 0 2 4 4 3 3 3
1 2 2 1 0 2 3 2 3 3 3 3 3 4 4 3 3 3 3 2 2 3 2 2 2 1 2 1 2 2 2 2 1 1 1 1 1 1 1 1 2 3 4 4
1 2 3 2 1 2 3 3 3 2 2 2 3 4 4 4 3 2 2 2 2 2 2 2 1 1 2 1 2 2 1 1 1 1 1 1 1 1 1 1 1 2 2 3
0 1 2 2 2 2 3 3 2 0 1 2 2 2 2 3 3 2 1 2 3 2 1 1 1 2 1 1 1 1 1 2 1 1 0 0 0 0 1 1 1 1 2 2
3 1 1 1 1 1 2 2 3 2 2 2 2 2 2 2 2 2 1 1 2 2 2 1 1 1 0 1 1 1 1 1 1 1 1 1 1 1 1 1 1 1 2 2
4 4 4 4 3 2 2 2 2 3 2 2 1 2 3 3 3 3 2 2 2 1 1 1 0 0 1 0 1 1 1 1 1 1 1 0 1 1 1 1 1 1 1 1
2 3 3 2 3 3 3 2 1 1 2 2 2 2 2 3 3 3 2 3 2 0 2 1 1 1 0 0 0 1 1 1 1 1 1 1 0 0 0 0 0 0 0 1
2 2 3 3 3 4 3 2 2 1 1 2 3 3 3 2 3 3 3 2 2 2 2 1 1 1 1 1 0 1 1 1 1 1 1 1 1 0 0 0 0 0 0 0
2 2 2 2 2 2 2 3 3 2 2 2 3 3 3 2 2 3 3 1 2 1 1 1 1 1 1 0 1 1 1 1 1 1 1 1 1 1 1 0 0 0 1 0
1 2 2 2 2 1 0 1 2 3 2 2 2 2 2 1 1 1 1 2 2 2 1 1 1 1 1 1 1 1 1 1 1 1 0 1 1 1 1 1 0 0 0 0
1 1 1 1 2 2 1 1 2 2 2 2 2 2 2 2 2 2 1 2 1 1 1 1 1 1 2 1 1 1 1 1 1 1 1 1 1 1 1 1 1 1 1 1
1 1 1 1 2 2 1 2 2 2 2 2 3 3 3 2 1 1 2 2 2 1 1 1 1 1 1 1 1 1 1 1 1 1 1 1 1 1 1 1 1 1 1 1
1 1 1 1 1 1 2 1 1 1 1 1 1 1 1 2 3 2 2 2 2 1 1 1 1 1 1 1 2 1 1 1 2 1 1 1 1 0 1 1 1 1 1 1
0 0 0 1 1 1 1 1 1 1 2 2 1 1 1 1 1 1 1 1 1 1 1 1 1 1 1 2 2 2 2 1 1 1 1 1 1 0 1 1 1 1 1 1
1 1 1 1 1 0 1 1 2 1 2 2 2 1 1 1 1 1 1 1 0 0 0 1 1 1 1 1 2 2 2 1 1 1 1 1 1 1 1 1 1 1 1 1
Wind_Direction
219 225 192 221 237 187 151 171 172 198 186 203 184 166 165 157 146 140 145 145 142 145 160 166 158 155 161 171 179 170 164 173 189 197 193 194 204 213 220 211 216 213 213 232
334 312 327 333 288 221 186 144 150 149 196 207 156 137 141 144 146 154 159 160 162 162 162 168 169 167 161 173 179 159 167 186 189 180 187 199 207 195 209 242 255 240 232 235
297 314 21 316 272 170 121 138 152 173 204 162 139 146 160 159 153 166 168 170 172 172 175 177 180 178 172 177 172 160 172 181 183 184 195 209 211 207 227 235 233 245 250 243
281 28 230 246 264 114 112 108 137 144 154 154 156 157 159 162 162 168 165 164 172 171 169 172 169 160 160 153 151 152 163 179 187 183 199 208 194 216 232 223 221 235 245 249
125 185 267 300 320 142 126 35 69 129 138 134 114 80 52 153 151 165 164 161 165 167 162 156 153 146 131 125 131 141 163 188 198 191 197 200 207 220 219 221 247 250 243 238
139 162 223 267 305 237 100 26 337 117 131 135 112 102 245 197 136 128 128 133 137 135 128 134 140 129 122 133 136 165 193 202 208 192 187 203 209 206 214 216 236 249 266 250
164 186 245 273 312 49 98 233 293 125 140 137 142 171 179 139 119 109 111 112 115 117 116 131 136 125 127 139 180 206 195 184 196 202 193 199 197 202 203 215 239 300 287 289
144 156 248 301 42 103 195 219 110 99 116 118 121 122 122 127 119 106 102 112 118 114 111 112 125 125 130 163 210 162 124 127 130 235 204 139 141 231 195 157 155 259 296 309
171 202 235 268 131 161 156 126 129 132 134 125 118 118 124 130 122 113 116 124 125 123 116 104 115 125 130 173 153 111 83 78 119 141 186 176 165 182 208 162 197 258 266 283
61 307 324 52 77 75 93 106 125 141 136 126 129 134 129 133 128 125 129 133 126 124 120 125 130 126 140 148 134 119 121 232 243 161 263 304 232 188 192 209 212 243 261 270
47 309 15 7 28 79 79 85 89 94 115 123 125 133 137 128 123 123 121 118 125 134 139 158 154 141 158 157 137 130 145 203 259 279 219 241 270 237 226 228 209 208 232 234
212 226 179 248 307 90 99 105 109 94 77 105 124 130 119 117 128 129 126 118 119 132 143 164 164 160 190 182 154 149 167 192 213 251 243 221 316 336 337 302 271 241 236 229
200 201 178 214 23 53 81 99 108 110 123 129 126 132 130 134 141 127 121 120 142 158 159 163 158 160 209 182 158 165 184 200 213 245 245 266 303 326 322 336 342 321 288 274
176 102 61 21 41 63 80 79 83 86 99 127 129 123 121 117 116 125 147 166 163 153 150 152 147 190 242 194 164 183 193 193 180 208 219 221 234 247 257 279 314 323 315 298
288 150 180 194 85 75 88 86 69 60 84 96 112 118 120 117 129 171 187 166 132 126 136 140 150 242 268 196 174 193 195 200 194 195 205 209 230 261 297 290 282 294 313 327
148 90 106 102 100 106 110 108 101 175 138 121 102 115 146 149 150 157 166 152 141 147 162 149 193 256 258 182 188 197 197 189 166 163 175 246 268 247 256 276 291 295 301 302
122 158 173 166 152 142 146 152 152 167 151 138 173 169 141 126 123 130 139 138 139 149 162 174 220 267 349 134 177 194 194 187 155 132 172 208 219 245 246 227 240 259 279 293
176 182 179 178 174 153 136 138 137 131 148 175 188 136 133 145 157 159 160 127 94 69 348 249 189 46 43 100 184 196 178 172 160 174 184 201 239 249 256 257 253 259 300 335
131 134 139 148 152 144 144 148 152 127 134 145 143 155 166 166 167 164 152 122 107 55 303 305 118 112 17 324 56 157 157 147 148 165 173 170 189 4 314 289 300 216 42 35
106 108 117 116 120 131 139 152 140 112 132 148 140 147 153 165 161 145 130 138 201 212 229 223 163 194 236 249 48 145 154 156 163 183 180 169 162 147 84 34 16 11 66 76
110 107 112 112 118 143 161 160 147 149 176 157 147 157 167 170 147 136 127 138 269 227 193 197 205 248 263 221 134 132 137 141 143 165 176 162 144 132 121 104 79 73 58 41
105 133 133 130 130 135 190 128 125 132 134 120 133 140 131 123 121 121 155 191 215 198 186 224 232 247 245 142 131 128 127 136 136 131 132 139 141 151 158 155 163 194 193 246
135 143 138 150 153 146 120 131 141 144 161 173 173 167 164 182 178 164 218 243 204 172 184 232 225 180 137 122 118 124 143 145 140 126 126 135 149 159 177 201 216 210 202 220
87 83 72 93 102 108 146 211 207 189 187 183 177 175 166 159 205 219 199 205 188 177 194 219 197 159 136 125 125 138 157 151 143 138 141 146 157 182 212 222 222 213 202 202
78 88 76 83 113 181 205 200 164 149 128 114 126 155 160 170 178 194 188 188 182 159 155 176 133 146 147 138 138 145 155 153 154 158 171 178 193 224 251 241 207 190 187 202
55 21 315 249 206 191 176 142 133 127 109 96 73 69 97 119 137 144 146 188 187 155 153 187 191 141 134 141 148 146 137 124 122 135 173 179 178 195 251 260 257 195 184 187
31 22 17 8 356 125 156 146 141 151 154 147 154 187 180 176 146 130 136 169 170 249 230 210 194 170 150 140 138 137 141 150 158 168 185 201 218 216 223 240 235 216 204 193